Wind_Speed
5 5 5 5 5 5 6 7 6 6 6 6 5 6 7 7 7 8 8 8 7 8 8 8 8 8 7 7 8 8 9 8 9 9 9 9 9 10 11 12 12 13 13
6 5 5 4 5 5 6 6 7 6 6 6 5 6 7 7 7 8 8 8 8 8 9 9 9 10 9 8 8 9 9 10 10 10 11 10 11 10 11 11 12 13 13
6 6 5 4 4 4 6 6 7 7 7 6 6 6 7 8 8 8 9 9 8 8 9 10 10 10 10 9 10 10 10 10 11 11 11 11 11 12 12 12 12 13 14
6 6 6 5 5 5 5 6 7 7 8 9 8 8 9 9 9 9 10 10 9 9 10 10 10 10 10 10 11 11 11 11 12 12 12 12 12 12 12 12 12 13 14
8 8 7 7 6 7 7 7 8 8 9 9 9 9 11 11 11 11 11 11 11 11 11 12 11 11 11 11 12 12 13 13 13 13 13 13 13 13 13 14 14 15 15
9 9 8 8 8 9 8 9 9 10 10 10 10 11 12 13 12 12 12 13 13 13 13 13 13 13 13 13 13 14 14 15 15 15 15 15 14 14 15 15 15 16 17
10 10 10 9 9 9 10 11 11 11 11 11 12 13 14 14 14 13 14 14 15 15 15 15 15 15 15 15 15 15 15 16 16 16 16 16 16 16 17 17 17 18 18
11 10 9 9 10 10 11 12 12 12 12 12 13 14 15 15 15 16 16 16 16 16 17 17 17 17 17 17 17 16 17 17 17 17 17 17 18 18 18 19 19 19 20
13 12 12 12 11 11 12 13 13 13 14 14 15 16 16 16 16 17 17 17 17 18 18 18 19 19 19 19 19 19 19 19 20 19 19 20 19 19 20 20 21 21 22
14 14 13 13 12 12 13 14 15 15 16 16 16 16 17 16 17 17 18 19 19 19 19 20 20 21 21 21 21 20 20 21 22 22 21 21 21 21 21 22 22 22 23
14 14 14 14 14 14 15 15 16 16 17 17 17 17 17 17 18 19 20 20 21 21 21 21 22 22 22 22 22 22 22 23 23 23 24 23 23 23 24 24 24 24 24
16 16 15 15 16 17 17 17 17 18 18 18 18 18 18 19 19 20 21 21 22 22 22 22 23 22 22 22 22 23 23 24 24 25 24 24 25 26 26 26 26 26 27
17 17 17 17 18 19 19 19 18 18 18 18 18 18 19 20 20 22 22 22 22 22 22 23 23 23 24 23 23 24 24 25 25 25 25 25 25 26 27 27 27 27 28
17 17 18 19 19 18 18 19 19 18 19 18 18 19 20 21 22 22 22 22 22 23 23 23 24 24 24 24 25 25 25 25 25 26 26 26 27 27 27 27 28 27 28
18 19 19 20 19 19 19 19 19 19 19 20 20 21 21 23 24 24 24 24 24 24 24 24 25 25 25 25 25 25 25 25 26 26 26 27 27 27 27 27 27 28 29
20 20 20 20 20 20 20 20 20 20 20 21 22 22 23 24 25 25 25 25 25 26 26 26 26 26 25 25 25 24 24 25 26 27 27 27 28 28 28 28 29 29 29
21 21 22 22 22 21 21 21 21 21 22 22 23 24 24 24 26 26 26 26 26 27 27 27 26 25 25 25 25 25 26 27 27 27 27 28 28 28 28 28 28 29 30
23 23 23 24 24 23 23 23 23 24 24 24 25 25 26 26 26 26 27 27 28 28 27 26 26 26 26 26 26 26 27 27 27 27 26 26 26 26 27 27 27 27 27
25 25 24 24 24 24 25 24 24 25 25 26 26 26 26 27 28 28 27 27 28 28 27 27 26 26 26 25 26 26 26 26 26 26 25 26 26 26 26 26 26 26 27
24 24 24 24 25 26 26 25 26 26 27 28 27 27 28 28 28 28 28 28 28 28 27 27 26 26 27 27 27 27 26 26 26 27 27 26 26 27 27 27 27 26 26
26 27 26 26 27 27 27 27 27 28 29 29 29 29 28 28 29 29 28 28 29 29 28 28 28 28 28 28 28 28 27 27 27 28 28 27 27 27 26 26 26 26 26
28 28 28 28 29 29 29 29 29 29 30 30 30 30 30 30 30 30 29 29 29 29 29 29 30 30 29 28 28 28 28 28 28 28 28 28 27 27 26 25 25 25 25
30 30 29 30 30 31 31 31 31 31 31 32 32 33 32 31 31 30 30 30 30 30 30 30 30 29 29 28 28 28 28 28 28 27 28 28 27 26 26 26 26 26 25
31 32 32 32 32 32 33 33 33 33 33 33 32 32 32 32 31 31 31 31 31 31 30 30 30 30 29 29 28 28 28 28 27 27 27 27 27 27 26 26 26 26 26
31 32 32 33 33 33 32 33 34 34 34 33 33 33 33 33 32 31 31 31 31 31 31 31 30 30 29 28 28 29 28 28 27 27 27 27 27 26 26 26 26 26 26
33 33 34 34 33 33 33 34 34 35 35 34 34 34 34 33 32 32 31 31 32 32 31 30 30 31 30 29 29 29 29 28 28 27 26 27 27 26 26 26 26 25 26
Wind_Direction
332 333 344 356 2 2 8 14 6 5 5 5 3 7 8 5 4 360 355 350 347 348 344 336 333 339 338 331 318 308 303 301 299 293 290 285 280 275 268 264 261 257 257
323 322 329 337 343 347 343 342 347 348 344 343 345 351 347 346 348 348 345 340 338 340 337 336 330 330 324 321 321 318 308 303 300 299 291 285 279 279 273 268 267 263 262
317 319 320 321 331 338 336 335 335 336 334 328 323 327 327 329 330 331 331 329 325 325 323 323 324 325 320 315 315 316 309 308 307 301 294 292 288 284 278 275 272 266 264
309 317 314 312 318 330 331 333 328 328 329 326 318 315 315 316 317 319 319 319 318 315 314 317 317 317 315 312 311 312 310 306 304 302 297 294 289 285 284 281 279 273 270
300 312 314 311 310 316 317 321 320 320 321 320 319 317 312 308 309 310 310 309 309 308 309 309 311 309 307 307 305 305 306 305 302 301 296 292 286 284 281 278 277 274 272
294 297 307 311 308 308 310 310 311 311 312 316 310 312 311 308 304 302 304 304 305 305 304 302 302 302 303 304 304 302 302 301 299 297 293 289 282 283 280 275 274 275 274
292 292 292 303 301 301 300 301 305 308 309 313 312 313 308 305 305 307 305 304 307 307 304 300 301 300 301 301 301 300 300 300 298 297 293 291 286 284 281 277 275 273 273
288 289 292 291 294 297 297 297 299 300 302 305 305 306 303 304 306 308 309 308 308 307 306 304 302 301 300 300 300 298 295 296 296 294 292 289 288 284 282 280 277 274 272
282 285 290 291 291 296 300 299 295 295 298 299 300 301 304 304 306 307 308 309 308 306 305 305 304 302 299 298 297 296 294 294 293 291 290 288 285 284 281 280 277 276 273
282 284 288 291 297 299 299 300 295 294 298 297 297 297 300 302 308 309 306 304 304 306 305 303 302 301 300 297 296 294 293 292 293 292 290 287 286 284 282 280 279 278 276
281 283 285 287 291 295 296 294 291 291 295 296 295 296 299 302 306 306 306 304 303 303 304 303 302 301 300 298 297 295 294 293 292 292 291 287 286 286 282 281 280 278 276
280 284 285 288 292 293 294 294 291 288 290 290 291 296 300 303 304 305 305 303 303 305 304 303 302 301 301 299 298 297 297 294 292 293 291 288 287 288 286 283 282 280 277
281 284 287 287 290 291 293 293 291 288 286 287 290 295 298 300 302 303 305 304 305 305 305 304 300 299 300 300 300 299 299 297 294 294 294 292 290 290 288 284 281 279 278
282 285 287 288 288 288 290 291 293 288 288 287 290 294 297 297 298 300 302 301 302 303 303 302 302 299 299 299 299 299 298 297 295 294 294 293 291 289 288 285 283 280 279
282 284 287 290 289 288 289 290 291 291 288 287 290 293 295 295 297 297 299 299 299 299 299 300 300 298 296 297 297 296 296 296 294 293 293 293 292 290 288 287 284 281 279
282 286 287 288 289 290 289 288 290 290 289 289 291 293 296 296 297 298 297 297 298 297 296 296 295 296 296 297 297 296 297 297 296 295 294 294 293 291 289 286 284 282 281
282 285 285 286 286 288 290 288 290 290 289 290 292 296 298 298 296 295 295 296 295 295 293 293 294 295 296 297 296 296 296 297 297 297 297 296 295 293 291 289 287 285 282
279 282 283 283 285 285 287 290 291 290 290 291 294 296 296 296 297 297 297 295 295 295 295 295 295 295 296 297 297 297 296 296 298 299 299 299 299 297 295 292 291 290 287
278 281 282 283 283 284 288 291 292 292 292 293 294 295 296 297 297 298 297 296 295 295 295 295 295 296 296 296 298 299 299 299 299 299 300 300 300 298 297 296 294 292 289
276 278 280 283 284 286 288 290 292 292 292 293 293 294 295 295 295 295 295 294 293 293 293 293 293 295 296 297 298 298 298 299 298 298 299 299 300 299 297 296 295 293 291
275 277 277 280 282 284 286 288 289 290 291 291 290 291 292 292 293 292 292 292 292 292 292 292 293 294 295 296 296 296 296 296 296 296 298 298 300 301 298 298 298 296 293
274 274 276 280 281 283 283 286 288 290 290 290 290 288 289 289 290 290 290 290 289 290 291 291 292 293 293 293 293 295 295 295 295 295 297 299 299 300 300 299 299 298 297
275 276 277 279 281 282 283 285 286 288 289 289 289 289 288 289 290 289 288 290 290 289 291 290 290 291 292 292 293 293 294 295 296 296 298 299 299 299 299 298 299 298 297
274 277 279 279 281 282 283 285 287 288 288 288 288 288 289 290 289 288 288 289 290 291 292 290 289 290 290 293 293 294 295 296 296 296 297 298 298 297 297 297 297 298 298
275 277 278 279 279 280 282 285 286 287 287 286 287 287 287 288 287 287 286 287 289 290 290 290 290 290 290 291 293 295 297 298 297 296 297 297 296 295 295 295 295 296 297
275 276 277 278 278 279 281 283 285 285 286 286 288 289 286 287 285 284 284 285 287 288 289 289 289 291 293 293 294 296 297 299 298 297 296 297 296 295 295 295 294 294 296
Height
5905 5903 5902 5901 5901 5900 5899 5898 5898 5897 5896 5895 5894 5893 5892 5892 5891 5889 5888 5886 5885 5884 5882 5881 5880 5878 5877 5876 5876 5875 5874 5872 5871 5870 5870 5869 5868 5868 5868 5868 5868 5868 5869
5904 5903 5902 5901 5900 5899 5899 5898 5897 5896 5895 5895 5894 5893 5892 5891 5890 5888 5887 5886 5884 5883 5881 5880 5878 5877 5876 5875 5874 5872 5871 5870 5869 5868 5867 5866 5866 5865 5865 5865 5865 5865 5865
5903 5902 5900 5899 5898 5898 5898 5897 5896 5894 5893 5893 5892 5892 5891 5890 5888 5887 5886 5884 5883 5881 5880 5878 5877 5876 5874 5873 5872 5870 5869 5868 5867 5865 5865 5864 5863 5862 5862 5861 5861 5862 5862
5902 5901 5900 5899 5898 5897 5897 5896 5894 5893 5892 5891 5891 5890 5889 5887 5886 5885 5884 5882 5881 5879 5878 5876 5875 5873 5872 5871 5870 5868 5866 5865 5864 5863 5862 5861 5860 5859 5859 5859 5858 5858 5859
5900 5899 5898 5898 5896 5896 5895 5894 5893 5892 5891 5890 5889 5888 5887 5885 5884 5882 5881 5880 5878 5876 5875 5873 5872 5871 5869 5868 5867 5865 5864 5862 5861 5860 5858 5857 5856 5856 5855 5855 5855 5855 5855
5897 5897 5896 5896 5895 5894 5893 5893 5892 5891 5890 5888 5887 5885 5884 5882 5880 5879 5878 5877 5875 5873 5872 5870 5869 5867 5866 5865 5863 5862 5860 5859 5858 5856 5855 5854 5853 5852 5852 5852 5851 5850 5850
5895 5894 5894 5893 5892 5891 5891 5890 5890 5889 5887 5886 5884 5882 5880 5879 5877 5876 5875 5874 5872 5870 5869 5867 5865 5864 5863 5861 5860 5858 5857 5855 5854 5852 5851 5850 5849 5848 5847 5847 5847 5846 5846
5892 5892 5891 5890 5890 5889 5888 5887 5886 5885 5884 5883 5881 5879 5877 5876 5875 5873 5872 5870 5868 5866 5865 5863 5862 5860 5858 5857 5855 5853 5852 5850 5849 5848 5846 5845 5844 5843 5842 5842 5841 5841 5841
5889 5889 5888 5887 5887 5886 5885 5884 5882 5881 5880 5879 5877 5876 5874 5873 5871 5869 5868 5866 5864 5862 5861 5859 5857 5855 5854 5852 5850 5849 5847 5845 5844 5842 5841 5840 5839 5838 5837 5836 5835 5835 5834
5886 5885 5885 5884 5883 5882 5881 5880 5879 5877 5876 5875 5874 5872 5870 5869 5867 5865 5863 5862 5860 5858 5856 5854 5852 5850 5849 5847 5845 5843 5842 5840 5839 5837 5835 5834 5833 5832 5831 5830 5829 5828 5827
5882 5881 5881 5880 5879 5878 5877 5876 5874 5873 5872 5870 5869 5868 5866 5864 5862 5861 5859 5857 5855 5853 5851 5849 5847 5845 5843 5841 5840 5838 5836 5834 5833 5831 5829 5828 5827 5825 5824 5823 5822 5820 5820
5878 5877 5876 5875 5874 5873 5872 5871 5869 5868 5866 5865 5864 5863 5861 5859 5858 5856 5853 5851 5850 5848 5845 5843 5841 5840 5838 5836 5834 5832 5830 5828 5826 5824 5822 5821 5819 5818 5817 5815 5814 5813 5812
5874 5873 5872 5871 5870 5869 5867 5866 5864 5863 5861 5860 5859 5857 5856 5854 5852 5850 5848 5846 5844 5842 5840 5838 5835 5834 5832 5830 5827 5826 5823 5821 5819 5817 5815 5813 5812 5810 5809 5807 5806 5804 5803
5869 5868 5867 5866 5865 5864 5862 5861 5859 5858 5856 5855 5853 5852 5850 5848 5846 5844 5842 5840 5838 5836 5834 5832 5829 5827 5825 5823 5821 5819 5817 5814 5812 5810 5808 5806 5804 5802 5800 5799 5797 5796 5794
5864 5863 5863 5862 5860 5859 5857 5855 5854 5852 5851 5849 5848 5846 5844 5843 5840 5838 5836 5835 5832 5830 5828 5826 5823 5821 5819 5817 5814 5812 5810 5807 5805 5803 5800 5798 5796 5794 5792 5790 5788 5787 5786
5859 5858 5857 5856 5855 5854 5852 5850 5848 5846 5845 5844 5842 5840 5838 5836 5834 5832 5830 5828 5826 5823 5821 5819 5817 5815 5812 5810 5807 5805 5802 5800 5797 5795 5792 5790 5788 5785 5783 5781 5779 5778 5776
5854 5853 5852 5850 5849 5847 5846 5844 5843 5841 5840 5838 5836 5834 5832 5830 5828 5826 5823 5821 5819 5817 5814 5812 5810 5808 5805 5803 5800 5798 5795 5793 5790 5787 5784 5781 5779 5776 5774 5772 5770 5768 5766
5847 5846 5845 5843 5842 5840 5839 5838 5836 5835 5834 5832 5829 5827 5825 5823 5821 5818 5816 5814 5812 5809 5807 5804 5802 5800 5798 5796 5793 5790 5787 5785 5782 5779 5776 5773 5771 5768 5766 5763 5761 5759 5757
5840 5839 5838 5836 5835 5834 5833 5831 5830 5829 5827 5825 5823 5820 5818 5815 5813 5811 5808 5806 5804 5802 5799 5797 5795 5793 5790 5788 5786 5783 5780 5777 5774 5771 5769 5766 5763 5760 5758 5755 5753 5751 5748
5832 5832 5831 5829 5828 5827 5826 5824 5823 5821 5819 5817 5815 5813 5810 5808 5806 5803 5801 5798 5796 5794 5792 5789 5787 5785 5783 5780 5778 5775 5772 5769 5767 5764 5762 5759 5756 5753 5750 5747 5745 5742 5740
5825 5824 5823 5822 5821 5820 5818 5817 5815 5813 5811 5809 5807 5805 5803 5800 5798 5795 5793 5790 5788 5786 5783 5781 5779 5777 5775 5772 5770 5767 5765 5762 5759 5757 5754 5751 5748 5745 5742 5740 5737 5735 5732
5817 5816 5815 5814 5813 5812 5810 5809 5807 5805 5803 5801 5798 5796 5794 5791 5789 5787 5784 5782 5779 5777 5775 5773 5771 5769 5767 5764 5761 5759 5757 5754 5752 5749 5746 5743 5740 5738 5735 5732 5730 5727 5725
5809 5808 5807 5806 5805 5803 5801 5800 5798 5796 5794 5791 5789 5787 5785 5782 5780 5778 5775 5773 5771 5769 5767 5765 5763 5760 5758 5755 5753 5751 5748 5746 5743 5741 5738 5736 5733 5730 5728 5725 5722 5720 5717
5800 5799 5798 5797 5795 5794 5792 5790 5788 5786 5784 5782 5780 5778 5776 5773 5771 5769 5767 5765 5763 5760 5758 5756 5754 5752 5750 5747 5745 5743 5740 5738 5735 5733 5731 5728 5725 5723 5720 5717 5715 5712 5710
5790 5790 5789 5788 5786 5784 5782 5781 5779 5777 5774 5772 5770 5768 5766 5764 5762 5760 5758 5756 5754 5752 5750 5748 5745 5743 5741 5740 5738 5735 5732 5730 5727 5725 5722 5720 5717 5715 5712 5710 5707 5705 5703
5781 5780 5778 5777 5776 5774 5773 5771 5769 5767 5765 5763 5761 5758 5756 5753 5752 5750 5748 5746 5745 5743 5741 5739 5737 5735 5733 5731 5729 5727 5725 5722 5719 5717 5714 5712 5710 5707 5705 5702 5700 5698 5696